User: anonymous   Login
Location: Banksville Park
(38.5557°N, 75.1182°W)
Time: 15:21:09
(UTC+00:00)
Language:

Cosmos 1535 Rocket - Orbit

View from above orbital plane
View from above orbital plane
View from above satellite
View from above satellite

Ground track
Ground track

The orbit data is extracted from the following two-line orbital elements,

1 14680U 84010B   20340.12181786 -.00000036  00000-0 -52883-4 0  9996
2 14680  82.9567 182.0465 0038855 110.3465   6.2738 13.76512308850378
Epoch (UTC): 05 December 2020 02:55:25
Eccentricity: 0.0038855
inclination: 82.9567°
perigee height: 948 km
apogee height: 1005 km
right ascension of ascending node: 182.0465°
argument of perigee: 110.3465°
revolutions per day: 13.76512308
mean anomaly at epoch: 6.2738°
orbit number at epoch: 85037

The dashed part of the orbit path shows where the satellite is in the earth's shadow,  

DLR